Погода в Витебске

Поиск расширенной информации на нашем сайте:

Полезная информация:

Новости сайта



02.01.2020
Опубликован Долгосрочный прогноз погоды по городам России и ближнего зарубежья на январь 2020 года.
Карты: Прогноз на январь и февраль 2020 года, Сравнение прогнозируемой аномалии приземной температуры воздуха на январь 2020 года по разным моделям.




Погода в Витебске - сегодня

Время (UTC), дата Ветер
(°,м/с) 
Видим.   Явления Облачность Т
(°С)
Тd
(°С)
f(%) Тe
(°С)
Pmin
(гПа)
dP
(гПа)
Po
(мм)
O2
(г/м3)
Тmin Tmax R s Состояние
почвы
00 19.01.20 220 (ЮЗ) 3600 м  дымка  10/10 120 м 
[St]
-0.9 -1.2 98 -3  1025.3  0.5  752  304           
03 19.01.20 220 (ЮЗ) 1800 м  слаб. переохл. морось (гололёд) [диам. гололёда 0 мм]  10/10 100 м 
[St]
-1 -1.3 98 -2  1025.8  0.5  753  305      0.0     
06 19.01.20 220 (ЮЗ) 3800 м  слаб. ливневой снег [диам. гололёда 0 мм]  10/10 150 м 
[Frnb]
-0.9 -1.5 96 -3  1026.9  1.1  753  305  -1.1    0.4  <0.5  равномерный
сухой снег
100% 
09 19.01.20 230 (ЮЗ) 7000 м  в посл. час ливневой снег  10/10 180 м 
[St]
-0.6 -1.3 95 -2  1028.5  1.5  755  305           
12 19.01.20 230 (ЮЗ) 4700 м  дымка{ливн. осадки}  10/10 120 м 
[St]
-0.1 -0.5 97 -1  1029.2  0.8  755  304           
15 19.01.20 230 (ЮЗ) 3400 м  дымка  10/10 120 м 
[St]
+0.2 -0.1 98 -2  1030.6  1.4  756  304      0.4     
18 19.01.20 230 (ЮЗ) 7000 м  слаб. снег  10/10 180 м 
[St]
+0.5 -0.1 96 -2  1031.8  1.2  757  305    +0.6  0.4  <0.5   
21 19.01.20 230 (ЮЗ) 6000 м  слаб. снег  10/10 180 м 
[St]
+0.7 +0.1 96 -1  1032.6  0.8  758  305           
00 20.01.20 260 (З) 9000 м  дымка{снег}  10/10 180 м 
[St]
+0.9 +0.5 97 -1  1033.3  0.7  758  304           
03 20.01.20 250 (З) 9000 м  дымка  10/10 180 м 
[St]
+1.3 +0.6 95 1033.3  758  304      0.1   
06 20.01.20 280 (З) 22000 м    10/10 360 м 
[St]
+1.6 -0 89 +1  1033.6  0.3  758  304  +0.5    0.1     
09 20.01.20 260 (З) 27000 м    10/10 360 м 
[St]
+2 -0.1 86 +1  1033.7  0.2  759  303           
12 20.01.20 250 (З) 5{10}  35000 м    9/8 500 м средняя 
[Sc|Ac trans]
+2.2 -0.9 80 1032.9  -0.8  758  303           
15 20.01.20 260 (З) 4{10}  35000 м    9/9 600 м 
[Sc]
+2.4 -0.7 80 1032  -0.9  757  303           
18 20.01.20 240 (ЮЗ) 35000 м    9/9 630 м 
[Sc]
+2.3 -0.5 82 +1  1030.2  -1.7  756  302    +3.2       
21 20.01.20 240 (ЮЗ) 5{10}  35000 м    9/9 1320 м 
[Sc]
+2.2 -0.6 82 1027.9  -2.3  754  302           
00 21.01.20 240 (ЮЗ) 4-10{10}  35000 м    10/10 450 м 
[St]
+2 -0.8 82 1025.7  -2.2  753  301           
03 21.01.20 240 (ЮЗ) 5-10{11}  8000 м  слаб. морось  10/10 300 м 
[St]
+2.3 +1.1 92 1021.7  -3.9  750  299      0.0     
06 21.01.20 250 (З) 5-11{12}  19000 м  {морось}  10/10 270 м 
[St]
+2.6 +1.6 93 1019.2  -2.4  748  298  +1.9    0.0     
09 21.01.20 250 (З) 5{13}  7000 м  слаб. морось  10/10 180 м 
[St]
+3.3 +2.7 96 +1  1016.9  -2.2  746  297           
12 21.01.20 250 (З) 6-12{15}  8000 м  слаб. морось  10/10 210 м 
[St]
+4.6 +3.9 95 +2  1014.2  -2.5  744  294           
15 21.01.20 260 (З) 5-11{13}  7000 м  слаб. морось{дождь}  10/10 240 м 
[St]
+5 +4.3 95 +3  1013  -1.2  744  294      0.3     
18 21.01.20 280 (З) 3{12}  4000 м  слаб. морось{дождь}  10/10 240 м 
[St]
+5.1 +4.7 97 +4  1012.7  -0.2  743  293    +5.8  0.7     
21 21.01.20 280 (З) 3{12}  35000 м  {морось}  6/6 840 м 
[Sc]
+3.6 +0.1 78 +2  1013.7  0.8  744  296           
00 22.01.20 260 (З) 35000 м  {морось}  ясно 
+2.7 -0.4 80 +1  1011  -2.7  742  296           
Время (UTC), дата Ветер
(°,м/с) 
Видим.   Явления Облачность Т
(°С)
Тd
(°С)
f(%) Тe
(°С)
Pmin
(гПа)
dP
(гПа)
Po
(мм)
O2
(г/м3)
Тmin Tmax R s Состояние
почвы

Для получения пояснительной информации подведите курсор к названию столбца.

ПОГОДА в Витебске - архив

Всё, что Вы хотите узнать о погоде в Витебске - удобно и подробно!

Выберите нужную дату (начиная с 1 января 2019* года) и нажмите кнопку "Найти".
Будут отображены архивные сводки погоды по пункту Витебск, начиная с указанной даты.


Отображать данные в формате CSV (для использования в таблицах Excel)


Внимание! Наш архив погоды предназначен исключительно для личного некоммерческого использования в познавательных целях. Если Вам необходимы официальные справки о состоянии погоды (для производственных, юридических, коммерческих и т.п. целей), обращайтесь в органы Росгидромета.

*Примечание: данная дата относится к архиву по метеостанциям СССР (Россия, СНГ, Балтия).
Архив по метеостанциям Зарубежной Европы и Азии (кроме Китая) хранится 10 дней, по другим регионам земного шара (Китай, Африка, Америка, Австралия, Океания) - 1 день.

Витебск - район местоположения метеостанции


Название, широта, долгота, высота метеостанции:
Витебск (город) 55.1°ш. 30.3°д. 170 м над ур. моря [Беларусь]

Дополнительная информация

В oтличие oт бoльшинства пoгoдных сайтoв мы публикуем пoдрoбную метеoинфoрмацию в детальнoм прoфессиoнальнoм фoрмате.

Характеристики температуры и влажнoсти вoздуха измеряются на высoте 2 м в тени вдали oт зданий и деревьев.
Скoрoсть ветра измеряется на высoте 10 м (на урoвне рoста челoвека скoрoсть ветра ниже в 1.5-2 раза). Если метеoстанция нахoдится в гoрoде или в лесу, тo скoрoсть ветра занижена на 2-4 м/с пo сравнению с oткрытым местoм. Скoрoсть ветра над акватoриями крупных рек и oзёр, а также на вершинах хoлмoв на 2-5 м/с выше, чем в oбычных услoвиях.
Атмoсфернoе давление в разных тoчках местнoсти мoжет значительнo oтличаться oт давления на метеoстанции, в зависимoсти oт услoвий рельефа (при пoдъёме на 10 м давление пoнижается примернo на 1 мм рт.ст.).